This is the latest recevied weather packets stored in our database for station/object KC0AFB. If no packets are shown the sender has not sent any weather packets the latest 1 day(s).
| Time | Temp. | Humidity | Pressure | Rain* | Wind** | Luminosity | Snow |
|---|---|---|---|---|---|---|---|
| 1778045284 | 0° C | 63% | 1017.2 hPa | 0 mm | 0.45 m/s, 28° | 0 W/m² | - |
| 1778044982 | 0° C | 62% | 1017.1 hPa | 0 mm | 0.45 m/s, 24° | 0 W/m² | - |
| 1778044679 | 0° C | 62% | 1017.3 hPa | 0 mm | 0.45 m/s, 18° | 0 W/m² | - |
| 1778044375 | 0° C | 61% | 1017.3 hPa | 0 mm | 0.45 m/s, 31° | 0 W/m² | - |
| 1778044074 | 0° C | 61% | 1017.3 hPa | 0 mm | 0.45 m/s, 49° | 0 W/m² | - |
| 1778043771 | 0° C | 62% | 1017.2 hPa | 0 mm | 0.45 m/s, 44° | 0 W/m² | - |
| 1778043467 | 0° C | 62% | 1017.1 hPa | 0 mm | 0.45 m/s, 50° | 0 W/m² | - |
| 1778043164 | -0.56° C | 63% | 1017.1 hPa | 0 mm | 0.45 m/s, 29° | 0 W/m² | - |
| 1778042861 | 0° C | 62% | 1017.2 hPa | 0 mm | 0.45 m/s, 1° | 0 W/m² | - |
| 1778042558 | 0° C | 62% | 1017.1 hPa | 0 mm | 0.45 m/s, 49° | 0 W/m² | - |
| 1778042256 | -0.56° C | 62% | 1017.2 hPa | 0 mm | 0.45 m/s, 26° | 0 W/m² | - |
| 1778041953 | -0.56° C | 62% | 1017 hPa | 0 mm | 0.45 m/s, 14° | 0 W/m² | - |
| 1778041652 | 0° C | 61% | 1017 hPa | 0 mm | 0.45 m/s, 357° | 0 W/m² | - |
| 1778041353 | 0.56° C | 60% | 1017 hPa | 0 mm | 0.45 m/s, 51° | 0 W/m² | - |
| 1778041048 | 0.56° C | 60% | 1017.1 hPa | 0 mm | 0.45 m/s, 53° | 0 W/m² | - |
| 1778040745 | 0° C | 61% | 1017 hPa | 0 mm | 0.45 m/s, 53° | 0 W/m² | - |
| 1778040442 | -0.56° C | 62% | 1016.8 hPa | 0 mm | 0.45 m/s, 65° | 0 W/m² | - |
| 1778040139 | 0° C | 62% | 1017 hPa | 0 mm | 0.45 m/s, 65° | 0 W/m² | - |
| 1778039836 | 0° C | 61% | 1017 hPa | 0 mm | 0.45 m/s, 65° | 0 W/m² | - |
| 1778039533 | 0.56° C | 60% | 1016.9 hPa | 0 mm | 0.45 m/s, 65° | 0 W/m² | - |
| 1778039229 | 0° C | 61% | 1017 hPa | 0 mm | 0.45 m/s, 59° | 0 W/m² | - |
| 1778038927 | 0° C | 62% | 1016.9 hPa | 0 mm | 0 m/s | 0 W/m² | - |
| 1778038624 | 0.56° C | 61% | 1016.8 hPa | 0 mm | 0 m/s | 0 W/m² | - |
| 1778038321 | 1.11° C | 57% | 1016.9 hPa | 0 mm | 0 m/s | 0 W/m² | - |
| 1778038018 | 1.11° C | 57% | 1016.8 hPa | 0 mm | 0 m/s | 0 W/m² | - |
* Rain latest hour (hover to see other rain measurements)
** Current wind speed in m/s (hover to see current wind gust speed)